Weather History for Orlando International, FL

Change the Weather History Date:

Tuesday, February 12, 2013

  Actual Average Record
Temperature  
Mean Temperature 72 °F 63 °F  
Max Temperature 85 °F 74 °F 88 °F (1939)
Min Temperature 58 °F 52 °F 29 °F (1926)
Degree Days  
Heating Degree Days 0 4  
Month to date heating degree days 41 59  
Since 1 July heating degree days 263 443  
Cooling Degree Days 7 2  
Month to date cooling degree days 33 24  
Year to date cooling degree days 134 69  
Growing Degree Days 20 (Base 50)    
Moisture  
Dew Point 62 °F    
Average Humidity 72    
Maximum Humidity 100    
Minimum Humidity 43    
Precipitation  
Precipitation 0.00 in 0.08 in 1.86 in (1967)
Month to date precipitation 0.00 0.99  
Year to date precipitation 0.24 3.34  
Sea Level Pressure  
Sea Level Pressure 30.04 in    
Wind  
Wind Speed 7 mph (SSW)    
Max Wind Speed 16 mph    
Max Gust Speed 22 mph    
Visibility 9 miles    
Events Fog    
T = Trace of Precipitation, MM = Missing Value Source: NWS Daily Summary

Daily Weather History Graph

Daily Weather History Graph

Search for Another Location

Airport:

Trip Planner

Search our weather history database for the weather conditions in past years. The results will help you decide how hot, cold, wet, or windy it might be!

Date:

Astronomy

Feb. 12, 2013 Rise Set
Actual Time 7:05 AM EST 6:13 PM EST
Civil Twilight 6:41 AM EST 6:37 PM EST
Nautical Twilight 6:13 AM EST 7:05 PM EST
Astronomical Twilight 5:46 AM EST 7:33 PM EST
Moon 8:19 AM EST (2/12) 8:52 PM EST (2/12)
Length of Visible Light 11h 56m
Length of Day
11h 08m
Waxing Crescent, 7% of the Moon is Illuminated
Feb 12
Waxing Crescent
Feb 17
First Quarter
Feb 25
Full
Mar 4
Last Quarter
Mar 11
New

Hourly Weather History & Observations

Time (EST) Temp. Heat Index Dew Point Humidity Pressure Visibility Wind Dir Wind Speed Gust Speed Precip Events Conditions
12:53 AM 64.9 °F - 62.1 °F 90% 30.11 in 10.0 mi South 5.8 mph - N/A   Clear
1:53 AM 64.0 °F - 62.1 °F 93% 30.11 in 10.0 mi South 3.5 mph - N/A   Clear
2:53 AM 64.9 °F - 63.0 °F 93% 30.09 in 10.0 mi South 3.5 mph - N/A   Mostly Cloudy
3:53 AM 62.1 °F - 61.0 °F 96% 30.08 in 10.0 mi SSE 5.8 mph - N/A   Clear
4:53 AM 63.0 °F - 62.1 °F 97% 30.09 in 10.0 mi Calm Calm - N/A   Clear
5:27 AM 62.6 °F - 60.8 °F 94% 30.09 in 6.0 mi Calm Calm - N/A Fog Patches of Fog
5:53 AM 61.0 °F - 61.0 °F 100% 30.09 in 3.0 mi Calm Calm - N/A Fog Patches of Fog
6:53 AM 57.9 °F - 57.9 °F 100% 30.10 in 3.0 mi Calm Calm - N/A Fog Patches of Fog
7:53 AM 61.0 °F - 60.1 °F 97% 30.12 in 3.0 mi Calm Calm - N/A Fog Patches of Fog
8:02 AM 62.6 °F - 62.6 °F 100% 30.11 in 7.0 mi SSE 4.6 mph - N/A   Scattered Clouds
8:53 AM 66.9 °F - 66.0 °F 97% 30.12 in 10.0 mi SSW 8.1 mph - N/A   Scattered Clouds
9:53 AM 73.0 °F - 66.0 °F 79% 30.12 in 10.0 mi SSW 15.0 mph - N/A   Mostly Cloudy
10:53 AM 75.9 °F - 66.0 °F 71% 30.11 in 10.0 mi South 10.4 mph - N/A   Scattered Clouds
11:53 AM 81.0 °F 82.7 °F 64.9 °F 58% 30.08 in 10.0 mi SW 13.8 mph - N/A   Scattered Clouds
12:53 PM 81.0 °F 81.9 °F 62.1 °F 52% 30.04 in 10.0 mi SSW 11.5 mph - N/A   Scattered Clouds
1:53 PM 82.9 °F 83.3 °F 61.0 °F 47% 30.00 in 10.0 mi SSW 10.4 mph 19.6 mph N/A   Mostly Cloudy
2:53 PM 82.9 °F 83.3 °F 61.0 °F 47% 29.98 in 10.0 mi SSW 9.2 mph - N/A   Mostly Cloudy
3:53 PM 84.0 °F 83.8 °F 59.0 °F 43% 29.96 in 10.0 mi SSW 10.4 mph - N/A   Mostly Cloudy
4:53 PM 82.9 °F 82.8 °F 59.0 °F 44% 29.95 in 10.0 mi SSW 9.2 mph - N/A   Mostly Cloudy
5:53 PM 81.0 °F 81.6 °F 60.1 °F 49% 29.95 in 10.0 mi SW 6.9 mph - N/A   Mostly Cloudy
6:53 PM 77.0 °F - 61.0 °F 58% 29.95 in 10.0 mi SSW 5.8 mph - N/A   Mostly Cloudy
7:53 PM 75.9 °F - 63.0 °F 64% 29.96 in 10.0 mi SSW 8.1 mph - N/A   Mostly Cloudy
8:53 PM 73.9 °F - 64.0 °F 71% 29.97 in 10.0 mi SW 10.4 mph - N/A   Scattered Clouds
9:53 PM 73.0 °F - 64.9 °F 76% 29.97 in 10.0 mi SW 10.4 mph - N/A   Partly Cloudy
10:53 PM 71.1 °F - 66.0 °F 84% 29.98 in 10.0 mi SSW 9.2 mph - N/A   Clear
11:53 PM 70.0 °F - 66.9 °F 90% 29.98 in 10.0 mi SW 9.2 mph - N/A   Partly Cloudy